This is the latest recevied weather packets stored in our database for station/object VE4GLS. If no packets are shown the sender has not sent any weather packets the latest 10 day(s).
| Time | Temp. | Humidity | Pressure | Rain* | Wind** | Luminosity | Snow |
|---|---|---|---|---|---|---|---|
| 1778359099 | 12.78° C | 42% | 1010.2 hPa | 0 mm | - | - | - |
| 1778358755 | 12.78° C | 41% | 1010.2 hPa | 0 mm | - | - | - |
| 1778358499 | 12.78° C | 40% | 1010.3 hPa | 0 mm | - | - | - |
| 1778357899 | 12.22° C | 42% | 1010.3 hPa | 0 mm | - | - | - |
| 1778357855 | 12.22° C | 41% | 1010.2 hPa | 0 mm | - | - | - |
| 1778357301 | 12.78° C | 40% | 1010.3 hPa | 0 mm | - | - | - |
| 1778356955 | 13.33° C | 41% | 1010.2 hPa | 0 mm | - | - | - |
| 1778356701 | 12.78° C | 41% | 1010.2 hPa | 0 mm | - | - | - |
| 1778356101 | 12.78° C | 41% | 1010.3 hPa | 0 mm | - | - | - |
| 1778356055 | 12.78° C | 40% | 1010.3 hPa | 0 mm | - | - | - |
| 1778355500 | 12.78° C | 43% | 1010.3 hPa | 0 mm | - | - | - |
| 1778355154 | 12.22° C | 43% | 1010.2 hPa | 0 mm | - | - | - |
| 1778354900 | 12.22° C | 42% | 1010.3 hPa | 0 mm | - | - | - |
| 1778354300 | 12.78° C | 40% | 1010.1 hPa | 0 mm | - | - | - |
| 1778354254 | 13.33° C | 40% | 1010.2 hPa | 0 mm | - | - | - |
| 1778353700 | 13.33° C | 41% | 1010.1 hPa | 0 mm | - | - | - |
| 1778353356 | 12.78° C | 43% | 1010.2 hPa | 0 mm | - | - | - |
| 1778353100 | 12.78° C | 41% | 1010.1 hPa | 0 mm | - | - | - |
| 1778352501 | 12.78° C | 42% | 1010.1 hPa | 0 mm | - | - | - |
| 1778352455 | 12.78° C | 42% | 1010.2 hPa | 0 mm | - | - | - |
| 1778351900 | 12.22° C | 42% | 1009.9 hPa | 0 mm | - | - | - |
| 1778351554 | 12.22° C | 42% | 1009.9 hPa | 0 mm | - | - | - |
| 1778351299 | 11.67° C | 44% | 1010 hPa | 0 mm | - | - | - |
| 1778350700 | 11.67° C | 42% | 1009.9 hPa | 0 mm | - | - | - |
| 1778350654 | 11.67° C | 41% | 1010 hPa | 0 mm | - | - | - |
* Rain latest hour (hover to see other rain measurements)
** Current wind speed in m/s (hover to see current wind gust speed)